Terminal Aerodrome Forecast
Issued by NWS Twin Cities, MN

Home | Current Version | Previous Version | Graphics & Text | Print | Product List | Glossary On
Versions: 1 2 3 4 5 6 7 8 9 10 11 12 13 14
000
FTUS43 KMPX 080500
TAFSTC
TAF
KSTC 080521Z 0806/0906 30009KT P6SM FEW070
     FM081500 31016G26KT P6SM FEW040
     FM090100 31006KT P6SM SKC=

USA.gov is the U.S. government's official web portal to all federal, state and local government web resources and services.